Regional Weather Roundup
Issued by NWS Glasgow, MT

Home | Current Version | Previous Version | Text Only | Print | Product List | Glossary On
Versions: 1 2 3 4 5 6 7 8 9 10 11 12 13 14 15 16 17 18 19 20 21 22 23 24 25 26 27 28 29 30 31 32 33 34 35 36 37 38 39 40 41 42 43 44 45 46 47 48 49 50
000
ASUS45 KGGW 310215
RWRGGW
HOURLY REGIONAL WEATHER ROUNDUP FOR NORTHEAST MONTANA
NATIONAL WEATHER SERVICE GLASGOW MONTANA
800 PM MDT SUN AUG 30 2015

NOTE: "FAIR" INDICATES FEW OR NO CLOUDS BELOW 12,000 FEET WITH NO
SIGNIFICANT WEATHER AND/OR OBSTRUCTIONS TO VISISBILITY.

NORTHEAST MONTANA


CITY           SKY/WX    TMP DP  RH WIND       PRES   REMARKS
GLASGOW        MOCLDY    74  48  39 W5        29.71R
PLENTYWOOD       N/A     77  45  32 SE3         N/A
WOLF POINT     CLOUDY    78  50  37 NW8       29.68F
JORDAN           N/A     73  50  43 NW23G31   29.76R
WINNETT          N/A     64  53  67 N9G31       N/A
SIDNEY         MOCLDY    72  46  40 CALM      29.70R
GLENDIVE       MOCLDY    73  46  38 N7        29.73S
MALTA            N/A     68  59  73 S3G25       N/A

FORT PECK REPORTS


CITY           SKY/WX    TMP DP  RH WIND       PRES   REMARKS
FORT PECK        N/A     70  63  78 E5          N/A
THE PINES        N/A     69  57  65 E5G14       N/A

SOUTHEAST MONTANA


CITY           SKY/WX    TMP DP  RH WIND       PRES   REMARKS
BILLINGS       MOCLDY    81  47  30 CALM      29.73S
MILES CITY     CLOUDY    75  55  49 SE7       29.70R THUNDER
BAKER          CLOUDY    74  52  46 E5        29.74F
LIVINGSTON     CLEAR     77  20  12 SW33G41   29.78R

CENTRAL MONTANA


CITY           SKY/WX    TMP DP  RH WIND       PRES   REMARKS
HAVRE          CLOUDY    72  40  31 MISG      29.73R
LEWISTOWN      MOCLDY    65  53  65 SE8       29.81R
GREAT FALLS    CLOUDY    63  37  38 W18G28    29.79S
CUT BANK       MOCLDY    56  38  50 W28G37    29.81F
HELENA         CLOUDY    67  40  37 SW12      29.86F
BUTTE          MOCLDY    65  28  24 W15G23    29.94S
BOZEMAN        CLOUDY    66  41  40 NW13G22   29.87R HAZE

WESTERN MONTANA


CITY           SKY/WX    TMP DP  RH WIND       PRES   REMARKS
MISSOULA       CLOUDY    54  47  77 N5        30.05R
KALISPELL      NOT AVBL

NORTH DAKOTA


CITY           SKY/WX    TMP DP  RH WIND       PRES   REMARKS
WILLISTON      PTCLDY    71  48  43 CALM      29.71S
DICKINSON      MOCLDY    74  49  41 N9        29.71F
MINOT          CLOUDY    74  55  51 NW8       29.67R
BISMARCK       CLEAR     85  54  34 N13       29.64R

SOUTHERN SASKATCHEWAN


CITY           SKY/WX    TMP DP  RH WIND       PRES   REMARKS
REGINA         PTCLDY    64  57  77 SE9       29.67R
ESTEVAN        MOCLDY    68  50  52 S5        29.70R
SWIFT CURRENT  CLEAR     66  39  37 SW8       29.64F HAZE




USA.gov is the U.S. government's official web portal to all federal, state and local government web resources and services.